Regional Weather Roundup
Issued by NWS

Home | Current Version | Previous Version | Graphics & Text | Print | Product List | Glossary On
Versions: 1 2 3 4 5 6 7 8 9 10 11 12 13 14 15 16 17 18 19 20 21 22 23 24 25 26 27 28 29 30 31 32 33 34 35 36 37 38 39 40 41 42 43 44 45 46 47 48 49 50
000
ASUS45 KABQ 242010
RWRNM
NEW MEXICO REGIONAL WEATHER ROUNDUP
NATIONAL WEATHER SERVICE ALBUQUERQUE NM
200 PM MDT SUN SEP 24 2017

NOTE: "FAIR" MEANS FEW OR NO CLOUDS BELOW 12,000 FEET AGL WITH NO
       SIGNIFICANT WEATHER OR OBSTRUCTIONS TO VISION.

      THIS PRODUCT IS RELEASED AS TWO VERSIONS.  ONE VERSION NEAR
      THE TOP OF THE HOUR CONTAINING PRELIMINARY DATA FROM ALBUQUERQUE
      AND OTHER STATIONS.  A FINAL VERSION WITH ADDITIONAL DATA IS
      ISSUED ABOUT 10 MINUTES AFTER THE HOUR.

NMZ501-503-504-510>518-242100-
NORTHWEST PLATEAU/NORTHCENTRAL MOUNTAINS

CITY           SKY/WX    TMP DP  RH WIND       PRES   REMARKS
FARMINGTON     FAIR      63  21  20 VRB6      29.95F
LOS ALAMOS     FAIR      62  23  22 SE18      30.01F
SANTA FE       FAIR      65  24  21 SW9       29.98F
TAOS           FAIR      63  30  28 S13G23    30.02F
ANGEL FIRE     FAIR      58  32  37 W14G23    30.05S

$$
NMZ402-403-502-505>509-242100-
WESTCENTRAL MOUNTAINS/SOUTHWEST MOUNTAINS

CITY           SKY/WX    TMP DP  RH WIND       PRES   REMARKS
GALLUP         FAIR      62  20  19 W21G28    30.00S
GRANTS         FAIR      68  13  12 SW10G18   29.99F
SILVER CITY    FAIR      74  32  21 SW13G22   29.95F

$$
NMZ407-409-411-412-242100-
SOUTHERN DESERTS

CITY           SKY/WX    TMP DP  RH WIND       PRES   REMARKS
DEMING         FAIR      79  40  24 SW13G22   29.89F
LAS CRUCES     FAIR      80  39  23 S3        29.90F
HOLLOMAN AFB   FAIR      84  41  21 S12G24    29.89F
ALAMOGORDO     PTSUNNY   81  39  22 S6G18     29.89F
T OR C         FAIR      80  34  19 SE13G20   29.87F

$$
NMZ519>523-242100-
CENTRAL VALLEYS/CENTRAL HIGHLANDS

CITY           SKY/WX    TMP DP  RH WIND       PRES   REMARKS
ALBUQUERQUE    FAIR      70  23  17 S14G21    29.94F
DOUBLE EAGLE   SUNNY     68  28  22 VRB5      29.96F
MORIARTY ARPT  FAIR      74  24  15 SW10G20   29.98S
CLINES CORNERS FAIR      68  22  17 S15G29    30.01F
BELEN          FAIR      73  24  16 S10       29.92F
SOCORRO        FAIR      78  23  13 S14G20    29.89F

$$
NMZ524>526-539-540-242100-
SOUTHCENTRAL MOUNTAINS

CITY           SKY/WX    TMP DP  RH WIND       PRES   REMARKS
RUIDOSO        FAIR      68  36  30 S20G25    30.03F

$$
NMZ527>531-242100-
NORTHEAST HIGHLANDS/NORTHEAST PLAINS

CITY           SKY/WX    TMP DP  RH WIND       PRES   REMARKS
LAS VEGAS      FAIR      65  32  29 SW18G25   29.99F
RATON          NOT AVBL
CLAYTON        FAIR      73  59  61 SE15G21   29.90F

$$
NMZ532>537-242100-
EASTCENTRAL PLAINS

CITY           SKY/WX    TMP DP  RH WIND       PRES   REMARKS
SANTA ROSA     FAIR      77  38  24 SW13G18   29.89F
TUCUMCARI      FAIR      81  53  37 S16G22    29.84F
CANNON AFB     FAIR      78  55  45 SW9       29.91F
CLOVIS AIRPORT PTSUNNY   75  58  55 S13       29.91F

$$
NMZ028-029-538-242100-
SOUTHEAST PLAINS

CITY           SKY/WX    TMP DP  RH WIND       PRES   REMARKS
ROSWELL        FAIR      82  57  42 SE13      29.85F
ARTESIA        FAIR      82  59  44 S15       29.85F
CARLSBAD       FAIR      82  62  50 SE9       29.84F
HOBBS          PTSUNNY   79  59  50 S8        29.88F


$$



USA.gov is the U.S. government's official web portal to all federal, state and local government web resources and services.